Location: Bailleul
(50.3375°N, 2.8513°E)
Time: 09:23:14
(UTC+00:00)

Cosmos 2266 Rocket - Pass Details

Date: 19 April 2021
Orbit: 935 x 1007 km, 82.9° (Epoch: 05 May)

Event Time Altitude Azimuth Distance (km) Brightness Sun altitude
Rises 20:20:43 0° 352° (N) 3,747 7.8 -13.6°
Reaches altitude 10° 20:23:20 10° 356° (N) 2,788 7.0 -13.9°
Maximum altitude 20:29:40 60° 76° (ENE) 1,135 4.2 -14.7°
Enters shadow 20:34:06 20° 151° (SSE) 2,114 5.2 -15.2°
